Temperature
18 18 17 16 16 17 17 17 16 16 16 16 17 18 19 20 20 21 22 22 22 23 23 23 22 22 22 22 21 21 20 19 19 18 18 18 17 17 16 16 16 16 16 15
17 18 17 16 15 16 17 17 16 16 15 17 18 18 19 19 20 20 21 21 22 22 22 22 22 21 21 21 21 20 20 19 19 18 18 17 17 16 16 16 16 16 16 15
16 17 17 13 12 13 14 14 15 15 15 17 17 18 18 18 18 19 20 20 20 21 21 21 20 20 20 20 20 20 19 19 18 18 17 17 16 16 16 16 16 16 15 15
15 15 13 10 11 12 13 13 14 14 15 16 16 17 17 17 17 17 18 18 18 19 19 19 19 19 19 19 18 18 18 18 17 17 16 16 16 16 15 15 15 15 15 15
14 13 11 11 11 12 12 13 12 13 14 14 15 17 17 16 16 17 17 17 17 18 18 18 18 18 18 18 17 17 17 16 16 16 15 15 15 15 15 15 15 15 15 15
14 12 11 10 12 13 14 13 11 12 13 13 14 14 15 16 16 17 16 17 17 17 17 17 17 17 17 16 15 15 14 14 14 14 14 14 14 14 14 14 14 14 14 14
14 12 11 12 13 13 12 10 10 11 12 12 13 13 14 16 16 16 16 16 16 16 16 16 16 16 15 14 14 13 13 13 13 13 13 13 13 13 13 13 14 14 14 14
14 12 12 13 13 12 11 11 11 11 11 12 12 13 14 16 16 17 16 16 16 16 15 15 15 15 14 13 13 13 12 12 12 12 12 12 12 12 12 13 13 13 13 14
14 13 14 13 13 12 11 11 10 10 11 11 12 13 14 15 17 17 17 16 16 16 15 15 14 14 13 13 13 13 13 12 12 12 12 12 12 12 12 12 12 12 12 13
14 14 14 13 13 12 11 11 10 11 11 11 12 13 14 15 17 17 17 16 16 16 16 15 15 14 13 13 13 13 13 13 12 12 12 12 12 11 11 11 12 12 12 12
14 14 14 13 12 12 11 11 11 11 11 12 12 13 14 15 16 17 17 17 16 16 16 16 15 14 14 13 13 13 13 13 12 12 12 11 11 11 11 11 11 12 12 12
13 13 13 13 12 12 11 11 11 11 11 12 13 13 14 15 16 17 17 17 16 16 16 16 15 15 14 14 13 13 13 12 12 12 11 11 11 11 11 11 11 11 11 12
13 13 12 12 12 12 12 11 11 11 12 12 13 14 14 15 16 16 17 17 17 16 16 16 15 15 14 14 13 13 13 12 12 12 11 11 11 11 11 11 11 11 11 11
13 13 13 12 12 12 12 12 12 12 12 13 13 13 14 15 15 16 17 17 17 16 16 16 15 15 14 14 13 13 12 12 12 12 11 11 11 11 11 11 10 11 11 11
13 13 13 12 12 12 12 12 12 12 12 12 13 13 13 14 15 16 17 17 17 16 16 16 16 15 15 14 13 13 12 12 12 12 11 11 11 11 11 10 10 10 10 10
13 13 13 12 12 12 12 12 12 12 12 12 12 12 13 14 15 16 17 17 17 16 16 16 16 15 15 14 13 13 12 12 12 11 11 11 11 11 11 10 10 10 10 10
13 13 12 12 12 12 12 12 12 12 12 12 12 12 13 14 15 16 16 17 17 16 16 16 16 16 15 14 13 13 12 12 12 11 11 11 11 11 11 11 10 10 10 10
12 12 12 12 12 12 11 12 12 11 11 12 12 12 12 13 14 15 16 17 17 17 16 16 16 16 15 15 14 13 12 12 12 11 11 11 11 11 11 11 10 10 10 10
12 12 12 12 12 11 11 11 11 11 11 12 12 12 12 13 14 15 16 17 17 17 17 16 16 16 15 15 14 13 12 12 12 11 11 11 11 11 11 11 11 10 10 10
12 12 12 12 12 11 11 11 11 11 11 12 12 12 12 13 13 14 16 16 17 17 17 16 16 16 15 15 14 13 12 12 12 11 11 11 11 11 11 11 11 10 10 10
12 12 12 12 12 11 11 11 11 11 12 12 11 11 12 12 13 14 15 16 17 17 17 16 16 16 15 15 14 13 12 12 11 11 11 11 11 11 11 11 11 10 10 10
12 12 12 12 12 12 12 11 11 11 11 11 11 11 12 12 13 14 15 16 17 17 17 17 16 16 16 15 14 13 12 11 11 11 11 11 11 11 11 11 11 10 10 10
12 12 12 12 12 12 11 11 11 11 11 11 11 11 12 12 12 13 15 16 16 16 16 16 16 16 15 14 14 13 12 11 11 11 11 11 11 11 11 10 10 10 10 10
12 12 12 12 12 11 11 11 11 11 11 11 11 11 11 12 12 13 14 15 16 16 16 16 16 16 15 14 13 13 12 11 11 11 11 11 11 11 11 10 10 10 10 10
12 12 12 12 11 11 11 11 11 11 11 11 11 11 11 11 12 13 14 15 15 16 16 16 16 15 15 14 13 13 12 11 11 11 11 10 10 10 10 10 10 10 10 10
12 12 11 11 11 11 10 11 11 10 10 10 10 10 10 11 12 13 13 14 15 15 16 16 16 15 14 13 13 12 12 11 11 11 11 10 10 10 10 10 10 10 9 9
11 11 11 11 11 11 11 11 10 10 10 10 10 10 10 11 11 12 13 14 14 15 15 16 16 15 14 13 13 12 12 12 11 11 11 10 10 10 10 10 10 9 9 9
Wind_Speed
13 10 7 10 11 10 8 4 1 2 7 12 12 12 13 14 13 11 8 6 5 4 1 1 2 1 1 2 4 8 9 7 7 6 6 6 5 5 6 5 4 5 6 6
14 10 8 7 14 10 7 8 8 8 8 14 14 13 14 16 15 12 9 8 7 6 5 3 4 4 3 2 1 4 6 6 6 4 5 5 4 4 5 5 3 2 4 5
11 12 6 7 15 15 14 15 13 13 12 17 18 16 16 18 17 15 14 13 13 12 10 10 8 5 4 2 3 3 3 4 5 3 4 4 3 4 3 4 5 5 4 5
8 10 5 5 10 12 11 17 20 18 19 21 20 11 14 19 18 16 15 14 13 12 12 11 10 8 7 8 7 8 7 6 5 3 2 2 3 4 4 4 4 5 5 5
6 6 3 6 12 14 7 8 19 20 21 23 23 13 14 21 17 12 11 10 9 10 10 11 10 10 9 10 11 11 10 9 7 6 4 2 2 4 4 4 4 5 5 5
6 5 5 7 17 19 5 3 17 19 20 21 21 14 13 19 14 10 8 8 8 9 10 9 9 10 11 11 10 9 8 8 7 6 5 4 4 3 4 3 4 4 5 5
7 4 2 6 15 11 7 7 15 16 17 17 15 12 16 17 11 7 6 7 7 7 7 8 8 10 10 9 8 7 6 6 6 6 5 4 4 3 3 2 3 4 4 4
7 6 4 10 10 8 6 9 12 14 15 16 16 17 17 15 10 4 4 5 6 5 6 6 7 7 7 6 5 4 4 4 5 5 5 5 4 4 4 3 3 3 3 3
5 3 4 6 5 6 7 10 11 13 15 16 17 16 17 15 11 4 3 3 2 2 3 5 6 6 6 4 4 3 3 4 4 5 5 6 5 5 4 3 3 3 2 2
3 4 8 5 9 10 10 10 12 13 15 15 15 17 16 14 11 5 1 2 1 2 1 4 4 4 4 4 5 3 2 3 4 6 6 6 6 6 5 5 5 4 3 1
4 6 7 7 12 12 12 12 13 13 14 14 15 16 14 13 12 6 1 2 1 3 2 2 3 4 4 4 6 5 4 5 6 5 5 5 6 6 5 6 5 4 4 3
4 7 7 10 11 12 13 13 14 14 15 15 14 14 13 12 11 8 3 2 3 3 3 0 3 3 5 2 4 5 5 5 4 3 3 2 3 5 10 9 11 12 11 8
4 7 7 9 11 11 11 13 13 13 14 15 13 12 13 11 11 9 6 2 3 4 3 2 1 2 4 3 2 4 4 4 3 3 2 1 1 2 3 5 9 13 13 13
2 5 8 9 10 11 12 13 13 13 12 13 12 12 12 11 12 11 9 5 3 3 4 3 2 1 3 3 1 1 3 3 1 1 1 1 1 2 2 3 3 4 7 10
3 5 7 9 10 11 12 12 13 13 13 13 12 12 13 13 12 12 11 7 3 4 4 4 3 2 4 2 1 2 3 3 3 2 1 1 1 2 3 4 4 3 3 4
3 6 7 9 11 12 13 13 13 13 13 13 13 13 14 13 13 12 10 6 4 4 5 4 3 3 5 4 2 2 4 4 3 3 2 1 1 2 3 4 4 3 4 3
4 6 8 10 11 12 13 13 13 13 13 14 14 14 14 13 12 11 9 6 5 5 5 5 4 5 5 4 2 2 3 5 1 3 1 2 2 3 4 4 4 4 4 4
3 5 8 10 11 12 12 13 12 13 13 14 13 13 13 13 12 12 11 8 5 5 5 4 5 7 6 4 2 1 1 4 3 1 2 3 3 3 4 5 5 5 3 2
4 6 8 9 10 10 11 12 12 13 13 13 13 13 12 12 12 12 11 9 6 5 5 4 7 7 7 5 3 1 1 2 3 3 2 3 1 3 4 5 4 4 3 3
5 7 8 9 10 10 11 11 12 12 12 12 12 12 12 12 12 12 11 9 6 4 4 6 8 6 7 7 4 2 1 2 3 3 2 2 2 3 4 4 5 4 3 3
6 7 8 8 9 10 10 11 11 11 11 11 11 12 13 13 12 11 10 8 6 3 2 8 6 5 6 8 5 2 1 2 3 2 2 2 3 3 4 4 4 4 3 4
6 6 7 8 9 9 9 10 10 11 11 11 12 12 12 11 11 11 10 7 5 3 4 5 4 7 10 11 5 3 2 2 3 2 2 2 2 3 4 5 4 4 5 5
5 6 7 9 9 10 10 10 10 10 10 11 12 12 11 9 8 8 9 7 3 4 4 4 7 15 15 8 5 4 4 3 3 3 2 2 3 4 4 5 5 5 5 5
6 7 8 9 9 9 10 9 9 8 10 10 10 11 10 9 8 7 7 8 4 7 3 7 16 17 13 5 5 5 4 4 4 3 3 3 4 4 5 5 5 5 6 6
7 8 8 7 7 6 7 9 9 8 8 8 10 10 10 8 8 8 8 5 3 6 4 9 15 15 8 5 6 5 4 4 5 4 4 4 4 5 5 5 5 6 5 5
7 6 6 7 7 5 6 6 6 6 6 7 7 8 9 9 10 8 6 5 5 6 5 7 8 9 6 5 7 6 6 6 5 4 4 5 5 5 5 6 7 5 5 5
7 7 5 5 6 5 5 4 5 5 6 7 8 9 10 10 9 9 7 3 3 5 5 6 7 7 5 5 6 6 6 6 5 5 5 5 5 5 6 7 6 6 5 5
Wind_Direction
318 312 295 294 309 307 303 304 304 39 42 10 350 338 342 347 345 341 343 336 324 308 306 147 163 258 241 158 163 159 162 167 175 185 168 173 199 190 197 218 214 191 179 177
320 320 315 343 2 355 11 28 49 46 26 357 353 359 8 5 360 357 354 1 3 12 26 40 72 69 53 49 87 142 152 158 158 171 161 176 203 216 199 195 217 233 181 173
320 322 317 42 19 28 39 37 44 42 16 359 0 6 21 12 8 10 19 26 27 30 33 42 49 56 69 55 47 59 87 117 129 147 154 163 199 238 226 194 206 233 224 183
323 341 41 24 355 2 24 42 31 21 12 4 354 357 40 20 12 15 22 27 26 29 34 35 38 42 55 58 48 43 41 42 55 50 56 154 214 242 237 222 211 224 238 211
345 355 49 359 349 336 324 38 21 9 3 1 355 1 19 8 4 12 18 19 19 26 37 35 31 31 44 53 48 40 29 23 25 19 8 341 277 267 258 246 233 222 229 219
1 7 23 338 330 326 303 35 4 356 355 357 360 4 345 341 349 7 16 15 22 29 35 34 31 38 47 48 46 38 25 19 18 13 359 345 331 306 289 274 258 242 233 217
15 37 57 328 339 354 41 337 330 339 344 348 349 334 321 329 342 1 24 19 28 38 34 30 36 51 52 45 42 35 25 19 13 7 350 3 358 342 326 306 293 276 261 240
5 21 14 1 3 18 342 319 323 329 332 333 329 326 328 330 332 354 40 36 30 39 41 34 35 58 65 39 23 36 29 19 13 9 10 26 20 4 349 337 312 292 285 278
358 10 359 354 9 2 341 327 325 323 322 324 325 328 328 329 329 345 69 62 34 35 78 69 51 47 58 39 357 19 41 29 26 27 37 33 20 13 3 355 340 323 302 284
341 11 357 15 7 356 344 329 320 318 317 319 322 323 325 328 328 333 106 105 284 283 130 106 96 82 63 10 333 350 55 53 57 46 42 44 35 22 18 17 9 358 357 355
319 6 350 349 352 342 335 330 326 323 319 318 319 320 324 325 325 326 321 143 250 297 314 123 123 110 93 23 336 342 37 61 74 69 58 57 62 40 22 41 36 21 5 10
335 358 335 327 336 338 333 331 328 323 320 320 319 318 322 324 322 320 309 170 190 256 287 331 97 101 110 80 334 1 44 44 53 79 74 73 104 94 54 54 52 52 45 44
329 339 321 323 333 334 328 326 325 320 317 318 321 323 323 322 321 322 314 257 206 211 235 269 87 83 113 121 17 6 52 55 38 62 84 61 87 127 122 80 64 55 49 50
320 316 324 332 329 329 330 328 326 325 326 326 328 327 325 325 326 324 316 293 227 212 215 219 196 158 112 110 109 26 71 100 33 29 59 51 44 63 96 109 91 71 56 51
280 314 319 323 329 333 333 333 334 335 335 334 332 330 329 328 323 317 309 298 241 214 228 227 215 165 121 102 36 34 46 55 44 29 12 54 53 73 88 93 97 97 99 72
299 314 326 331 332 332 335 337 334 332 333 331 331 331 327 320 313 305 300 289 261 230 225 226 219 157 140 143 138 98 98 81 22 339 339 55 48 81 94 99 93 82 77 63
284 312 325 326 327 328 329 330 328 327 328 328 328 325 321 319 317 315 314 299 268 249 235 218 188 146 140 151 176 193 145 134 167 282 339 61 61 84 99 103 99 91 81 57
267 304 310 313 316 320 321 324 326 325 322 322 322 321 322 320 317 313 309 299 270 244 240 223 164 145 146 158 175 254 154 152 174 133 77 68 63 91 103 106 108 107 115 105
263 291 301 306 310 311 315 319 318 317 318 319 320 320 317 313 310 307 304 297 280 256 233 198 159 153 149 144 145 211 248 126 117 104 101 107 102 109 117 118 119 118 116 114
263 288 300 306 307 310 311 310 311 314 316 317 318 318 318 317 315 313 309 296 271 253 231 166 158 165 149 140 158 226 206 122 115 115 115 122 116 119 123 124 128 129 124 120
263 285 298 304 307 306 304 306 311 313 315 317 318 317 315 313 310 306 300 294 281 256 170 147 160 155 141 141 170 213 170 137 121 122 134 127 125 128 130 127 128 126 116 104
255 282 296 302 303 304 307 311 310 313 320 320 317 314 313 311 310 307 295 279 271 188 151 165 174 144 139 142 169 175 165 142 124 122 122 121 122 122 121 118 112 104 97 93
268 292 300 304 306 308 310 309 314 321 318 315 313 312 311 305 300 297 297 292 274 187 181 180 157 141 143 154 161 156 165 151 138 138 132 119 109 108 108 109 104 100 97 92
272 287 292 297 303 307 308 313 316 312 309 310 309 312 314 309 302 293 287 287 235 184 204 165 150 150 156 168 152 157 164 148 136 132 126 112 105 105 104 103 102 101 98 95
266 278 287 302 303 302 306 308 307 308 310 314 316 322 322 315 305 300 298 297 196 170 162 158 160 159 172 174 154 158 153 139 140 137 127 114 104 105 111 112 108 107 104 100
269 275 279 282 286 285 285 288 298 307 313 315 319 325 321 314 305 298 287 262 198 185 159 153 167 174 199 170 150 149 137 131 133 143 145 136 128 120 117 115 112 110 110 109
265 265 258 255 258 257 270 286 296 303 311 315 324 319 313 314 313 309 302 276 169 177 164 162 172 189 193 143 140 145 144 149 156 158 149 139 132 126 126 124 119 116 115 116
Height
1493 1491 1492 1493 1490 1487 1486 1485 1491 1492 1494 1492 1487 1481 1475 1470 1465 1461 1459 1458 1458 1458 1458 1459 1460 1462 1463 1464 1466 1468 1470 1472 1474 1477 1478 1479 1480 1481 1482 1484 1485 1486 1486 1487
1494 1490 1490 1494 1495 1489 1487 1487 1489 1491 1495 1492 1487 1481 1476 1472 1468 1464 1461 1460 1459 1458 1458 1459 1460 1461 1462 1463 1465 1467 1468 1470 1473 1475 1476 1476 1478 1479 1480 1481 1481 1483 1484 1485
1501 1492 1491 1506 1511 1506 1503 1499 1495 1500 1501 1492 1487 1483 1480 1477 1472 1468 1465 1463 1462 1461 1461 1461 1461 1462 1463 1464 1465 1467 1468 1469 1470 1472 1474 1473 1475 1476 1477 1478 1478 1479 1481 1482
1504 1501 1514 1527 1519 1515 1510 1507 1505 1504 1501 1496 1491 1486 1484 1481 1478 1474 1471 1469 1467 1466 1465 1465 1465 1465 1465 1465 1466 1466 1467 1468 1468 1469 1470 1470 1471 1472 1473 1474 1474 1475 1478 1479
1510 1514 1522 1524 1518 1515 1513 1511 1512 1509 1504 1499 1493 1485 1483 1484 1482 1480 1477 1475 1473 1471 1470 1469 1469 1468 1468 1467 1467 1466 1466 1466 1466 1467 1467 1468 1468 1469 1470 1470 1471 1472 1474 1476
1515 1521 1529 1531 1518 1511 1507 1512 1515 1513 1509 1505 1500 1496 1493 1489 1486 1483 1481 1479 1477 1475 1474 1473 1472 1471 1469 1469 1468 1467 1467 1466 1465 1465 1464 1465 1465 1465 1466 1467 1468 1469 1471 1472
1519 1524 1532 1528 1520 1513 1520 1526 1519 1516 1513 1510 1507 1506 1499 1492 1488 1485 1484 1482 1480 1479 1477 1476 1475 1473 1471 1471 1470 1469 1468 1467 1465 1464 1463 1462 1462 1462 1462 1463 1464 1465 1467 1468
1522 1526 1533 1525 1522 1524 1527 1523 1520 1516 1514 1511 1507 1502 1497 1493 1489 1486 1485 1484 1482 1481 1480 1479 1477 1476 1474 1473 1472 1471 1469 1468 1466 1465 1463 1462 1461 1460 1460 1460 1461 1462 1463 1465
1528 1530 1527 1525 1525 1525 1524 1521 1518 1515 1512 1509 1505 1501 1497 1492 1489 1487 1485 1485 1484 1483 1482 1481 1479 1478 1476 1475 1473 1472 1470 1469 1467 1465 1464 1462 1461 1460 1459 1459 1460 1460 1461 1463
1525 1525 1525 1525 1525 1524 1522 1520 1517 1513 1510 1507 1504 1500 1496 1492 1489 1486 1485 1484 1484 1484 1483 1481 1480 1479 1477 1475 1474 1473 1471 1470 1468 1466 1464 1463 1461 1460 1459 1459 1459 1460 1460 1461
1524 1525 1525 1524 1524 1522 1520 1517 1514 1510 1508 1505 1502 1498 1495 1492 1488 1486 1484 1484 1483 1483 1483 1482 1481 1479 1477 1475 1474 1473 1472 1470 1468 1467 1465 1464 1462 1461 1461 1460 1460 1460 1460 1461
1526 1526 1526 1525 1523 1520 1517 1514 1511 1508 1504 1502 1500 1497 1494 1491 1488 1485 1484 1483 1482 1482 1482 1482 1481 1480 1477 1476 1475 1474 1472 1471 1470 1468 1467 1466 1464 1463 1463 1462 1461 1461 1461 1461
1525 1525 1524 1523 1521 1519 1516 1512 1509 1506 1503 1500 1497 1495 1492 1489 1487 1484 1483 1482 1481 1481 1481 1481 1480 1479 1478 1476 1474 1474 1473 1471 1470 1469 1468 1467 1467 1466 1465 1464 1463 1462 1462 1462
1523 1523 1522 1521 1519 1516 1513 1510 1507 1504 1501 1499 1496 1493 1490 1488 1485 1483 1481 1480 1480 1480 1480 1480 1479 1479 1477 1476 1474 1473 1473 1472 1471 1470 1470 1469 1468 1467 1467 1466 1465 1464 1464 1464
1521 1521 1520 1518 1516 1514 1511 1508 1505 1502 1499 1496 1494 1491 1488 1485 1483 1481 1479 1478 1478 1478 1478 1478 1478 1477 1476 1475 1474 1473 1472 1472 1471 1470 1470 1470 1469 1469 1468 1467 1466 1466 1466 1465
1519 1518 1518 1516 1514 1512 1509 1506 1503 1500 1497 1495 1492 1489 1486 1483 1481 1479 1478 1477 1476 1476 1476 1476 1476 1476 1474 1473 1473 1472 1471 1471 1470 1470 1470 1470 1470 1470 1469 1468 1468 1468 1467 1467
1516 1516 1515 1514 1512 1510 1508 1505 1502 1499 1496 1493 1490 1486 1484 1481 1479 1477 1476 1475 1474 1474 1474 1474 1474 1474 1473 1472 1471 1471 1471 1470 1470 1470 1471 1471 1470 1470 1470 1469 1469 1469 1469 1469
1513 1514 1513 1511 1510 1507 1505 1502 1500 1497 1494 1491 1488 1485 1482 1479 1477 1475 1473 1473 1472 1471 1472 1472 1472 1472 1471 1471 1470 1471 1471 1471 1471 1471 1471 1471 1471 1471 1471 1471 1471 1471 1470 1471
1510 1510 1510 1508 1507 1505 1502 1500 1497 1494 1491 1488 1485 1482 1479 1477 1475 1473 1471 1470 1470 1469 1469 1470 1470 1470 1469 1469 1469 1470 1471 1471 1471 1471 1471 1471 1472 1472 1472 1472 1472 1473 1473 1473
1507 1507 1506 1505 1503 1501 1499 1496 1494 1491 1488 1486 1483 1479 1476 1474 1472 1470 1468 1467 1467 1467 1467 1467 1468 1468 1468 1468 1468 1468 1470 1470 1471 1471 1471 1472 1472 1473 1473 1474 1474 1474 1475 1475
1503 1503 1502 1501 1499 1498 1496 1493 1491 1488 1485 1483 1480 1477 1473 1470 1468 1467 1465 1464 1464 1464 1465 1465 1466 1466 1466 1466 1467 1467 1468 1469 1470 1471 1471 1472 1473 1474 1474 1475 1475 1476 1476 1477
1499 1499 1499 1497 1496 1494 1492 1490 1488 1485 1482 1479 1476 1474 1470 1467 1465 1463 1462 1462 1462 1462 1462 1463 1464 1464 1465 1465 1466 1466 1467 1468 1469 1470 1471 1472 1473 1474 1475 1475 1476 1476 1477 1477
1495 1495 1495 1494 1492 1490 1488 1486 1484 1482 1479 1476 1473 1470 1468 1465 1462 1460 1458 1459 1459 1459 1460 1460 1461 1462 1464 1464 1464 1465 1466 1467 1468 1470 1471 1472 1473 1474 1474 1475 1476 1476 1477 1477
1491 1491 1491 1490 1488 1487 1485 1483 1480 1478 1475 1473 1470 1468 1465 1461 1459 1457 1456 1456 1456 1456 1457 1458 1459 1461 1462 1463 1463 1464 1465 1466 1468 1469 1470 1471 1472 1473 1474 1475 1475 1476 1476 1477
1487 1487 1486 1485 1484 1483 1481 1479 1477 1475 1472 1470 1467 1464 1461 1459 1456 1454 1453 1452 1453 1453 1454 1455 1457 1459 1460 1461 1462 1463 1464 1465 1466 1468 1469 1470 1471 1472 1473 1474 1474 1475 1476 1476
1482 1482 1481 1481 1480 1478 1477 1475 1474 1472 1469 1467 1464 1461 1457 1454 1452 1451 1450 1449 1449 1450 1451 1453 1455 1457 1459 1460 1461 1462 1463 1464 1465 1466 1468 1469 1470 1471 1472 1473 1473 1474 1475 1475
1477 1477 1476 1475 1475 1474 1474 1472 1471 1469 1466 1464 1461 1457 1454 1451 1449 1448 1447 1447 1447 1448 1449 1451 1453 1455 1457 1459 1460 1461 1461 1462 1464 1465 1466 1467 1468 1469 1470 1471 1472 1473 1473 1474